Theta_e
311 307 298 297 293 292 287 293 297 297 297 301 304 303 301 303 304 296 317 324 331 340 347 347 349 351 351 352 351 349 348 349 348 347 347 348 348 348 348 349 348 348 345 344 341 340 339 340 343
303 306 297 293 284 281 284 292 295 299 299 300 301 304 300 301 308 308 308 322 329 333 346 347 346 351 351 351 350 349 348 349 349 347 347 346 346 347 346 346 347 346 342 341 339 338 338 342 344
300 302 292 288 284 280 280 290 295 297 296 296 299 304 301 300 303 304 308 324 325 326 341 347 345 350 350 351 350 349 348 349 349 348 346 345 345 346 346 346 346 345 342 339 338 338 342 343 343
294 291 289 285 283 285 285 289 290 291 293 298 297 299 299 302 302 303 312 315 316 318 329 340 345 348 350 348 349 349 349 348 349 348 347 346 345 346 346 346 345 344 343 340 338 341 343 343 343
289 287 282 281 282 287 290 291 288 289 292 293 295 297 296 300 301 303 308 310 309 311 321 326 332 337 342 346 346 346 347 348 348 348 347 346 346 346 346 345 345 344 343 341 343 342 343 343 342
284 284 277 276 281 286 287 287 289 288 291 292 291 293 294 300 297 298 305 307 309 309 313 319 322 327 331 334 340 344 344 346 346 347 346 345 346 345 345 345 345 344 343 342 344 343 342 342 341
282 279 276 276 278 280 284 288 285 288 288 290 291 289 294 296 296 297 298 305 308 309 310 313 316 320 324 328 330 331 341 342 343 345 344 343 343 343 344 343 344 344 342 344 344 342 341 341 340
284 281 276 276 276 279 283 285 288 288 288 292 292 288 288 292 295 296 296 295 302 306 309 309 312 314 316 325 327 327 329 337 339 339 338 336 337 338 338 336 340 343 343 343 342 341 340 340 339
288 278 274 277 278 279 284 283 287 288 286 287 289 289 290 293 295 293 292 293 294 297 305 307 309 311 313 320 322 326 326 330 333 334 332 331 339 337 334 332 336 341 341 341 340 339 338 337 335
283 276 278 282 281 281 283 283 284 284 284 284 286 290 292 291 291 291 291 291 292 292 296 305 306 307 311 318 317 321 326 326 336 337 336 338 338 336 334 328 330 334 334 338 339 337 334 330 329
284 279 283 285 286 286 285 284 284 282 281 283 285 287 290 290 290 289 290 291 291 293 294 297 304 306 306 311 311 316 322 326 332 337 336 337 336 332 331 329 330 330 325 330 332 331 330 328 327
281 285 285 286 288 287 284 285 284 284 284 287 288 288 288 288 289 290 290 291 292 292 293 295 299 305 305 309 309 312 319 323 325 336 335 335 333 330 329 327 326 327 325 324 325 325 327 326 326
282 283 287 288 287 286 287 285 284 284 288 288 289 290 289 289 290 291 291 292 292 293 293 294 296 304 306 306 308 310 314 317 321 324 335 335 331 329 328 325 326 325 325 326 325 325 326 325 324
285 286 285 287 286 286 285 285 284 286 287 287 287 287 289 289 290 291 291 292 292 294 295 296 300 302 304 305 306 308 311 317 318 322 333 334 332 330 328 325 325 324 325 326 325 326 324 323 323
286 281 284 284 285 285 286 281 282 287 289 284 282 283 285 286 288 287 289 290 292 294 295 296 299 302 302 304 306 308 311 316 319 324 329 333 333 330 328 325 325 325 324 324 325 324 324 323 322
282 281 277 283 284 285 284 275 283 285 286 280 280 279 281 283 285 287 288 288 290 292 294 297 300 301 302 302 304 306 310 312 316 323 328 327 332 331 328 326 325 325 324 323 323 324 322 322 321
278 274 276 279 285 283 282 277 284 284 281 278 278 278 280 281 283 285 287 288 290 291 294 295 297 299 302 302 303 304 309 312 316 322 326 329 329 331 329 326 324 325 323 322 322 320 321 319 320
273 274 276 274 279 280 279 277 281 280 279 277 277 277 278 279 281 284 287 292 291 290 293 294 296 298 300 301 303 304 305 309 315 321 327 331 331 328 327 325 324 324 323 322 322 321 320 319 319
277 275 273 276 281 278 277 277 277 279 276 275 276 277 277 278 282 285 289 293 291 290 291 294 295 297 297 298 299 301 306 313 320 324 326 330 329 328 326 325 324 323 322 322 322 319 318 316 318
277 274 273 276 279 278 276 274 276 278 277 276 275 276 277 278 280 283 288 292 290 289 290 292 295 297 297 300 302 307 311 316 323 326 328 329 328 327 325 324 323 323 322 322 320 319 315 316 318
275 274 273 272 277 278 276 272 273 276 278 276 276 276 277 277 279 282 287 289 294 289 288 292 295 299 299 300 303 307 315 316 321 322 323 326 326 326 325 324 323 323 323 321 321 319 317 312 315
265 278 275 274 268 267 274 263 272 273 273 273 273 274 275 276 279 282 284 287 290 294 289 296 303 302 305 305 306 307 311 312 318 320 321 321 325 325 324 324 323 323 323 321 320 319 317 315 311
271 277 275 275 268 266 273 266 270 271 269 269 271 273 274 276 278 281 283 285 289 291 293 298 299 299 300 303 306 310 311 315 317 308 304 301 301 304 315 321 321 317 308 304 305 303 301 303 301
278 274 276 277 268 258 269 266 265 265 267 268 270 271 273 275 277 280 282 284 287 288 288 292 294 294 296 298 301 307 306 305 302 300 297 295 295 296 298 299 298 298 297 295 294 293 293 292 291
274 269 262 262 259 259 272 267 263 268 269 268 268 269 272 274 276 278 279 281 284 285 286 288 289 290 292 293 295 297 295 296 295 293 293 291 291 291 290 292 291 290 291 290 289 288 286 287 286
272 269 263 259 259 262 273 263 265 270 270 269 269 270 272 273 275 277 278 280 281 283 284 285 285 285 287 289 290 292 292 292 291 290 289 288 287 286 287 287 287 286 286 286 286 284 283 283 282
272 269 273 264 266 261 265 270 270 273 268 266 265 269 270 272 273 276 278 279 280 281 282 282 283 283 284 285 285 286 287 286 286 286 286 285 285 285 286 284 283 283 283 283 282 280 280 280 279
274 275 268 268 260 260 266 264 260 263 262 264 264 267 269 271 272 275 276 277 279 280 281 281 282 281 282 283 284 284 284 284 284 283 282 282 282 282 282 281 281 280 280 280 280 279 279 278 277
270 269 270 269 268 263 262 266 261 261 262 263 265 268 269 271 272 274 275 277 277 278 279 279 280 279 280 281 282 281 281 282 281 280 279 279 279 279 279 279 278 278 278 279 278 278 278 277 276
274 268 269 263 264 268 266 266 270 265 264 266 267 268 269 272 272 274 274 275 275 275 277 277 278 278 279 280 280 279 279 280 278 278 278 278 278 278 278 278 278 277 277 277 276 276 276 275 274
Wind_Speed
9 8 1 5 3 3 4 8 4 5 3 3 6 6 5 2 1 4 4 9 11 3 9 11 13 16 14 14 16 18 15 16 18 18 17 17 18 18 20 19 18 17 17 17 16 16 17 16 16
6 4 5 3 4 3 7 6 9 15 4 12 7 5 1 3 3 4 4 9 8 6 6 9 12 14 15 15 14 16 17 16 16 17 18 17 17 18 18 18 17 16 17 17 17 16 17 16 16
6 2 4 4 5 11 6 5 15 7 9 7 6 6 4 2 4 3 4 4 9 12 2 9 13 15 16 15 15 16 17 15 16 16 18 18 18 17 16 16 15 16 17 18 17 17 17 14 13
4 5 4 3 11 6 4 6 4 8 9 4 3 6 5 6 3 3 5 7 10 10 11 7 10 15 14 17 18 18 18 19 16 17 17 19 18 17 16 15 15 15 16 17 18 17 14 14 14
4 3 1 4 7 5 7 8 4 4 6 6 9 5 5 2 5 4 7 9 8 8 9 11 16 13 9 13 19 20 19 19 19 18 18 17 18 17 17 15 15 16 17 16 16 16 15 14 14
4 3 0 6 9 8 7 6 7 4 3 5 4 2 4 3 6 3 6 7 7 7 7 8 11 15 15 12 9 18 22 20 19 20 19 18 18 18 17 17 15 15 17 17 17 16 15 13 13
6 5 6 5 6 5 5 10 5 7 3 4 2 2 3 2 3 2 6 6 6 6 7 6 6 7 11 10 15 15 15 23 21 20 20 19 18 17 16 15 15 17 17 18 17 15 14 12 11
4 4 3 5 4 7 1 8 6 6 5 2 1 4 4 1 6 4 6 6 6 6 6 6 5 6 5 5 8 10 13 16 20 19 17 16 14 14 13 11 13 18 17 18 18 17 14 13 10
3 2 3 5 4 3 4 6 8 7 4 7 4 2 5 3 8 7 5 6 4 4 4 4 5 5 4 4 5 7 8 11 16 16 15 13 10 11 12 10 11 13 15 17 17 16 15 12 10
3 4 7 6 2 4 3 2 5 6 9 5 8 14 8 3 4 5 6 7 6 5 4 2 2 3 3 3 3 2 5 5 9 11 12 10 11 10 10 10 11 11 11 16 17 15 13 9 4
4 5 4 7 5 5 5 5 3 3 4 1 8 11 13 11 8 3 2 4 3 4 2 4 3 1 3 2 3 1 1 3 5 10 11 10 8 7 7 5 7 6 9 6 10 9 6 6 4
6 6 5 6 7 7 8 5 7 7 8 8 12 10 6 8 8 10 10 6 6 7 7 5 3 3 3 2 3 4 1 2 3 6 11 9 6 8 8 7 8 7 4 5 5 4 6 6 6
4 4 8 10 8 10 12 9 10 10 14 10 11 9 10 9 8 7 9 8 7 7 6 6 3 6 4 4 4 4 3 2 4 8 11 10 9 9 9 9 8 7 6 6 6 6 6 6 5
5 10 14 12 12 10 8 11 4 10 7 9 14 16 14 12 15 10 10 10 9 7 7 6 4 6 4 5 5 5 4 3 4 7 6 13 10 10 10 10 9 8 7 6 6 7 7 6 5
7 9 8 5 2 6 12 7 9 14 15 12 13 14 15 17 17 14 14 14 13 14 8 6 5 6 5 6 6 5 4 4 4 4 10 4 11 12 13 10 9 9 8 7 6 5 6 6 4
5 2 4 4 12 3 9 7 10 18 12 14 15 15 15 15 16 15 16 15 16 14 10 7 3 3 6 6 5 4 5 4 5 6 5 10 6 12 9 10 9 9 9 8 6 6 5 5 6
2 7 16 10 11 9 5 11 7 13 14 13 13 14 15 17 18 18 18 16 16 15 15 8 3 1 5 6 5 5 7 5 6 6 7 11 11 11 12 6 7 9 10 9 8 3 4 4 5
16 13 9 17 10 11 8 10 12 14 13 11 12 13 14 16 18 20 21 17 13 12 10 6 7 4 4 4 4 4 5 6 6 6 8 6 10 11 11 8 6 5 2 5 6 6 2 3 4
10 13 15 14 7 15 4 6 10 9 14 15 16 16 17 18 19 17 18 17 11 9 9 9 9 9 3 2 2 4 5 4 5 7 7 9 10 13 11 8 10 8 7 4 6 4 4 1 4
12 14 7 10 12 7 8 10 9 10 14 12 14 16 16 19 20 21 21 19 12 11 9 9 7 7 6 3 3 3 5 5 4 4 6 11 11 11 10 9 8 8 8 7 4 3 3 2 4
14 4 10 11 8 3 8 2 5 10 9 15 15 15 16 18 20 21 21 19 18 9 7 9 9 9 6 6 2 4 5 4 2 3 2 6 13 12 11 11 10 10 9 8 8 5 5 3 2
5 3 17 16 2 4 2 4 5 12 9 17 18 18 18 20 20 18 19 20 19 16 7 6 10 10 9 9 5 8 6 5 2 1 3 5 5 10 13 13 11 11 8 8 6 4 3 4 5
9 19 12 5 3 3 5 3 2 9 12 21 19 21 20 19 19 18 18 18 17 17 17 14 14 14 13 12 12 7 8 3 3 6 10 11 11 13 8 5 7 8 6 9 11 8 8 4 4
13 5 2 2 3 5 8 3 3 6 10 16 18 19 21 21 21 19 17 17 16 16 17 15 16 14 14 13 12 6 8 7 7 7 8 8 9 9 12 12 14 12 11 12 11 12 15 10 10
9 6 5 6 7 5 4 4 4 5 7 9 16 18 18 18 18 18 19 18 17 18 17 14 16 15 15 14 12 10 12 13 12 10 8 10 9 9 11 13 16 13 13 15 14 15 16 13 11
5 3 4 4 3 6 5 4 5 4 3 9 12 13 17 17 17 17 18 16 16 17 16 15 15 15 15 14 13 11 13 9 11 12 10 10 11 11 13 15 19 18 15 16 15 14 14 14 14
6 3 1 2 3 3 3 1 4 12 19 15 15 17 17 17 17 17 16 16 15 14 16 15 14 15 15 14 12 12 13 15 14 14 15 12 13 12 16 18 20 18 17 17 17 15 15 14 14
4 4 1 1 4 4 3 4 5 14 19 16 17 17 17 16 16 14 13 14 14 14 13 14 14 14 14 14 12 11 13 17 16 16 20 17 16 17 19 19 19 18 19 17 17 15 14 15 13
3 4 3 3 2 2 4 4 4 5 8 12 13 14 14 15 15 13 12 11 11 11 12 12 13 14 15 15 12 12 13 18 16 19 18 17 18 19 19 17 20 20 18 17 18 17 15 16 14
4 2 1 1 4 2 2 5 1 2 5 8 13 14 13 13 12 10 9 9 11 11 12 13 14 14 14 15 12 12 14 18 20 20 19 17 19 18 17 18 19 18 18 17 18 18 14 15 15
Wind_Direction
334 311 130 46 76 65 240 243 282 281 278 214 319 258 216 60 307 197 205 359 13 209 170 177 174 170 178 166 160 157 162 156 156 151 150 147 146 145 146 145 144 145 149 151 156 153 149 146 143
330 330 44 86 124 195 242 222 221 240 276 321 266 248 182 104 27 103 49 337 17 13 180 173 179 175 178 170 168 163 163 165 163 161 156 155 153 151 154 149 148 148 154 156 158 154 151 152 153
334 40 90 154 192 216 219 206 224 270 303 281 296 32 57 24 5 75 311 352 27 25 302 184 183 186 182 173 173 171 168 175 172 169 165 163 161 159 160 158 158 158 157 159 160 155 155 158 171
18 13 16 197 240 280 235 290 313 298 295 233 234 87 62 315 59 2 10 23 48 31 32 1 202 194 188 185 184 179 174 173 176 172 173 170 168 166 164 167 166 166 159 165 160 157 160 162 151
38 65 241 251 257 254 275 291 321 298 294 310 323 134 114 339 143 95 68 59 48 31 36 47 40 28 351 226 201 191 187 180 175 175 175 176 171 169 166 174 175 172 164 166 164 159 159 165 154
23 80 129 246 261 283 301 298 315 276 243 295 10 51 155 165 59 71 78 77 80 65 31 36 38 35 36 13 325 211 194 192 184 176 178 180 178 175 173 175 180 181 169 170 162 160 162 163 153
146 115 217 242 248 282 283 324 271 255 242 247 193 136 201 186 299 357 92 76 60 69 65 43 39 30 30 21 30 19 239 197 190 185 179 181 181 181 180 177 182 180 175 170 158 158 159 158 155
123 115 239 229 208 276 32 324 356 15 280 304 213 199 183 290 7 92 48 58 73 45 48 49 43 40 25 28 3 354 351 242 194 189 182 178 176 175 170 168 173 177 173 164 164 157 156 158 156
117 51 246 253 210 278 357 17 324 307 331 326 349 134 59 5 10 19 9 0 8 27 44 46 36 26 25 22 22 319 356 292 229 191 187 173 178 173 166 174 176 172 166 163 165 160 157 157 162
133 148 235 222 359 297 285 337 290 335 331 301 335 327 321 343 38 26 358 345 347 352 22 29 31 6 6 4 19 340 314 325 242 207 185 184 179 177 172 175 174 170 167 164 166 164 153 144 151
326 224 246 298 314 1 315 298 293 293 296 300 307 298 310 325 328 180 234 298 293 279 283 308 290 281 346 332 322 300 213 273 280 211 182 190 173 173 168 175 181 173 184 179 169 159 143 155 156
332 282 305 286 326 321 305 277 284 217 250 256 259 254 247 275 288 305 310 224 275 293 283 296 293 242 243 261 273 278 223 266 270 228 189 180 172 176 175 177 181 168 162 174 150 145 152 164 169
245 286 311 308 307 298 293 285 266 290 274 297 290 286 281 288 272 235 245 275 256 275 276 283 263 229 227 238 258 268 262 253 325 302 194 182 178 181 173 179 182 171 165 172 157 163 161 168 175
303 305 301 298 300 291 288 291 17 278 313 337 14 5 351 0 347 341 341 317 307 270 266 261 233 211 195 227 251 253 250 229 267 257 265 184 180 180 182 177 185 178 169 166 162 171 167 170 174
268 294 298 292 336 294 25 333 310 337 329 33 10 12 360 2 358 3 353 348 342 318 274 244 220 225 213 237 250 256 245 231 245 248 229 231 198 189 185 178 178 189 165 155 157 165 166 163 172
303 292 310 343 317 318 1 284 12 2 34 21 9 360 352 352 344 346 341 335 329 332 302 236 230 244 228 243 255 257 253 240 225 240 235 207 214 200 191 189 180 184 166 170 158 167 166 181 172
275 304 298 308 336 316 303 295 8 9 25 16 6 356 348 343 345 344 336 329 319 320 321 280 228 279 243 268 270 267 257 241 247 242 255 200 191 198 196 195 178 177 180 173 166 131 149 166 173
309 313 297 308 317 15 312 350 56 28 16 20 6 355 350 347 341 332 329 321 305 306 320 335 300 245 236 257 275 277 268 251 240 235 245 179 176 163 178 168 152 152 114 168 150 148 145 148 188
296 301 301 300 345 328 283 56 49 25 20 13 4 356 351 344 335 337 330 333 315 300 325 339 338 304 271 270 287 286 257 250 251 252 239 182 164 167 177 171 176 153 147 184 162 130 160 152 151
318 305 292 293 321 316 82 48 19 23 23 12 0 354 348 342 343 340 339 344 332 303 318 318 306 300 295 235 210 238 258 258 238 238 221 190 162 161 147 152 134 157 160 144 176 158 132 141 182
329 264 311 301 317 45 131 135 51 2 3 4 3 351 354 353 341 339 344 346 341 303 305 315 315 315 308 278 292 275 273 285 310 204 139 144 145 147 150 149 164 163 155 178 187 165 158 150 187
311 295 311 302 322 157 154 267 8 349 351 359 354 357 352 346 343 342 347 351 352 353 328 331 7 359 342 324 300 243 234 237 196 279 107 76 134 160 156 167 163 170 166 185 170 150 151 146 169
251 316 294 282 272 13 146 106 342 357 344 348 351 347 345 343 342 343 349 355 359 6 9 13 11 3 346 339 325 241 227 248 36 64 79 59 48 42 47 128 121 110 80 72 80 73 72 48 80
323 343 359 273 80 28 297 120 320 1 335 335 339 341 342 342 342 346 352 1 6 12 15 13 11 6 2 358 351 40 67 73 81 64 73 66 53 45 44 62 71 68 76 76 74 73 69 72 72
358 22 354 354 6 227 280 2 260 329 344 343 334 334 341 341 343 347 356 1 6 14 14 14 14 13 7 10 18 46 62 69 70 60 66 68 66 55 45 64 68 69 67 73 78 72 65 62 67
352 87 137 263 318 288 354 343 274 186 15 0 349 333 342 344 345 350 356 0 5 15 18 19 22 21 15 16 22 46 63 69 68 69 74 69 68 64 64 70 72 69 68 72 78 76 72 67 69
331 5 316 220 196 343 251 166 127 333 346 353 350 351 346 346 347 352 356 0 4 12 20 23 31 31 25 29 30 42 65 73 74 71 72 71 73 75 71 69 74 70 72 73 74 72 72 67 67
81 331 190 358 335 308 308 302 253 336 335 345 343 345 344 346 347 349 357 4 9 15 17 23 33 42 34 36 39 48 70 74 77 76 75 72 72 70 70 71 75 73 67 69 71 70 68 73 63
10 12 354 283 191 308 316 291 204 288 318 331 329 340 340 340 344 348 355 7 15 22 26 29 33 42 41 42 39 50 72 77 78 76 75 72 75 71 73 74 74 71 72 70 76 74 72 75 75
123 175 157 353 335 299 245 288 300 245 335 340 335 340 344 346 341 350 354 14 26 29 32 37 41 45 45 51 43 53 74 83 77 73 73 74 76 75 78 76 77 78 74 73 76 78 68 71 69